Time,TemperatureF,DewpointF,PressureIn,WindDirection,WindDirectionDegrees,WindSpeedMPH,WindSpeedGustMPH,Humidity,HourlyPrecipIn,Conditions,Clouds,dailyrainin,SoftwareType,DateUTC
2013-07-25 00:00:00,67.3,58.0,29.94,South,173,0.0,0.0,72,0.00,,,0.00,Wunderground v.1.15,2013-07-25 05:00:00,
2013-07-25 00:10:00,66.9,58.0,29.94,South,173,0.0,0.0,73,0.00,,,0.00,Wunderground v.1.15,2013-07-25 05:10:00,
2013-07-25 00:20:00,66.8,57.9,29.94,South,173,0.0,0.0,73,0.00,,,0.00,Wunderground v.1.15,2013-07-25 05:20:00,
2013-07-25 00:30:00,66.4,57.9,29.94,South,173,0.0,0.0,74,0.00,,,0.00,Wunderground v.1.15,2013-07-25 05:30:00,
2013-07-25 00:40:00,66.3,58.1,29.94,South,173,0.0,0.0,75,0.00,,,0.00,Wunderground v.1.15,2013-07-25 05:40:00,
2013-07-25 00:50:00,66.1,58.3,29.94,South,173,0.0,0.0,76,0.00,,,0.00,Wunderground v.1.15,2013-07-25 05:50:00,
2013-07-25 01:00:00,65.8,58.0,29.94,South,173,0.0,0.0,76,0.00,,,0.00,Wunderground v.1.15,2013-07-25 06:00:00,
2013-07-25 01:10:00,65.6,57.8,29.94,South,173,0.0,0.0,76,0.00,,,0.00,Wunderground v.1.15,2013-07-25 06:10:00,
2013-07-25 01:20:00,65.5,58.1,29.93,South,173,0.0,0.0,77,0.00,,,0.00,Wunderground v.1.15,2013-07-25 06:20:00,
2013-07-25 01:30:00,65.2,58.2,29.93,South,173,0.0,0.0,78,0.00,,,0.00,Wunderground v.1.15,2013-07-25 06:30:00,
2013-07-25 01:40:00,65.0,58.0,29.93,South,173,0.0,0.0,78,0.00,,,0.00,Wunderground v.1.15,2013-07-25 06:40:00,
2013-07-25 01:50:00,64.8,58.1,29.94,South,173,0.0,0.0,79,0.00,,,0.00,Wunderground v.1.15,2013-07-25 06:50:00,
2013-07-25 02:00:00,64.7,58.0,29.94,South,173,0.0,0.0,79,0.00,,,0.00,Wunderground v.1.15,2013-07-25 07:00:00,
2013-07-25 02:10:00,64.5,58.2,29.94,South,173,0.0,0.0,80,0.00,,,0.00,Wunderground v.1.15,2013-07-25 07:10:00,
2013-07-25 02:20:00,64.5,58.2,29.95,South,173,0.0,0.0,80,0.00,,,0.00,Wunderground v.1.15,2013-07-25 07:20:00,
2013-07-25 02:30:00,64.2,57.9,29.95,South,173,0.0,0.0,80,0.00,,,0.00,Wunderground v.1.15,2013-07-25 07:30:00,
2013-07-25 02:40:00,64.0,57.7,29.95,South,173,0.0,0.0,80,0.00,,,0.00,Wunderground v.1.15,2013-07-25 07:40:00,
2013-07-25 02:50:00,63.9,58.0,29.96,South,173,0.0,0.0,81,0.00,,,0.00,Wunderground v.1.15,2013-07-25 07:50:00,
2013-07-25 03:00:00,63.9,58.0,29.96,South,173,0.0,0.0,81,0.00,,,0.00,Wunderground v.1.15,2013-07-25 08:00:00,
2013-07-25 03:10:00,63.7,58.1,29.96,South,173,0.0,0.0,82,0.00,,,0.00,Wunderground v.1.15,2013-07-25 08:10:00,
2013-07-25 03:20:00,63.7,58.1,29.96,South,173,0.0,0.0,82,0.00,,,0.00,Wunderground v.1.15,2013-07-25 08:20:00,
2013-07-25 03:30:00,63.5,57.9,29.95,South,173,0.0,0.0,82,0.00,,,0.00,Wunderground v.1.15,2013-07-25 08:30:00,
2013-07-25 03:40:00,63.5,58.2,29.95,South,173,0.0,0.0,83,0.00,,,0.00,Wunderground v.1.15,2013-07-25 08:40:00,
2013-07-25 03:50:00,63.4,58.1,29.95,South,173,0.0,0.0,83,0.00,,,0.00,Wunderground v.1.15,2013-07-25 08:50:00,
2013-07-25 04:00:00,63.4,58.1,29.94,South,173,0.0,0.0,83,0.00,,,0.00,Wunderground v.1.15,2013-07-25 09:00:00,
2013-07-25 04:10:00,63.2,57.9,29.94,South,173,0.0,0.0,83,0.00,,,0.00,Wunderground v.1.15,2013-07-25 09:10:00,
2013-07-25 04:20:00,63.1,57.9,29.94,South,173,0.0,0.0,83,0.00,,,0.00,Wunderground v.1.15,2013-07-25 09:20:00,
2013-07-25 04:30:00,63.1,58.2,29.94,South,173,0.0,0.0,84,0.00,,,0.00,Wunderground v.1.15,2013-07-25 09:30:00,
2013-07-25 04:40:00,62.9,58.0,29.94,South,173,0.0,0.0,84,0.00,,,0.00,Wunderground v.1.15,2013-07-25 09:40:00,
2013-07-25 04:50:00,62.7,57.8,29.94,South,173,0.0,0.0,84,0.00,,,0.00,Wunderground v.1.15,2013-07-25 09:50:00,
2013-07-25 05:00:00,62.7,57.8,29.94,South,175,0.0,0.0,84,0.00,,,0.00,Wunderground v.1.15,2013-07-25 10:00:00,
2013-07-25 05:10:00,62.7,58.1,29.94,SSE,163,0.0,0.0,85,0.00,,,0.00,Wunderground v.1.15,2013-07-25 10:10:00,
2013-07-25 05:20:00,62.7,58.1,29.94,SSE,163,0.0,0.0,85,0.00,,,0.00,Wunderground v.1.15,2013-07-25 10:20:00,
2013-07-25 05:30:00,62.7,58.1,29.95,SSE,163,0.0,0.0,85,0.00,,,0.00,Wunderground v.1.15,2013-07-25 10:30:00,
2013-07-25 05:40:00,62.7,58.1,29.95,SSE,164,0.0,0.0,85,0.00,,,0.00,Wunderground v.1.15,2013-07-25 10:40:00,
2013-07-25 05:50:00,62.6,58.0,29.94,SSE,163,0.0,0.0,85,0.00,,,0.00,Wunderground v.1.15,2013-07-25 10:50:00,
2013-07-25 06:00:00,62.6,58.0,29.95,SSE,163,0.0,0.0,85,0.00,,,0.00,Wunderground v.1.15,2013-07-25 11:00:00,
2013-07-25 06:10:00,62.6,58.4,29.95,SSE,163,0.0,0.0,86,0.00,,,0.00,Wunderground v.1.15,2013-07-25 11:10:00,
2013-07-25 06:20:00,62.6,58.4,29.95,SSE,163,0.0,0.0,86,0.00,,,0.00,Wunderground v.1.15,2013-07-25 11:20:00,
2013-07-25 06:30:00,62.6,58.4,29.96,SSE,163,0.0,0.0,86,0.00,,,0.00,Wunderground v.1.15,2013-07-25 11:30:00,
2013-07-25 06:40:00,62.6,58.4,29.96,South,171,0.0,0.0,86,0.00,,,0.00,Wunderground v.1.15,2013-07-25 11:40:00,
2013-07-25 06:50:00,62.7,58.5,29.96,SSE,165,0.0,0.0,86,0.00,,,0.00,Wunderground v.1.15,2013-07-25 11:50:00,
2013-07-25 07:00:00,62.9,58.6,29.94,SSE,165,0.0,0.0,86,0.00,,,0.00,Wunderground v.1.15,2013-07-25 12:00:00,
2013-07-25 07:10:00,63.1,58.8,29.94,SSW,192,0.0,0.0,86,0.00,,,0.00,Wunderground v.1.15,2013-07-25 12:10:00,
2013-07-25 07:20:00,63.2,59.3,29.95,SSW,202,0.0,0.0,87,0.00,,,0.00,Wunderground v.1.15,2013-07-25 12:20:00,
2013-07-25 07:30:00,63.4,59.5,29.96,ESE,103,0.0,0.0,87,0.00,,,0.00,Wunderground v.1.15,2013-07-25 12:30:00,
2013-07-25 07:40:00,63.7,59.8,29.96,SSW,209,0.0,0.0,87,0.00,,,0.00,Wunderground v.1.15,2013-07-25 12:40:00,
2013-07-25 07:50:00,64.2,59.9,29.96,SSW,207,0.0,0.0,86,0.00,,,0.00,Wunderground v.1.15,2013-07-25 12:50:00,
2013-07-25 08:00:00,64.5,60.2,29.96,SSW,205,0.0,0.0,86,0.00,,,0.00,Wunderground v.1.15,2013-07-25 13:00:00,
2013-07-25 08:10:00,64.8,60.5,29.96,SSW,205,0.0,0.0,86,0.00,,,0.00,Wunderground v.1.15,2013-07-25 13:10:00,
2013-07-25 08:20:00,66.0,61.0,29.96,SW,223,0.0,0.0,84,0.00,,,0.00,Wunderground v.1.15,2013-07-25 13:20:00,
2013-07-25 08:30:00,67.6,61.2,29.96,SW,236,0.0,0.0,80,0.00,,,0.00,Wunderground v.1.15,2013-07-25 13:30:00,
2013-07-25 08:40:00,68.6,61.5,29.96,SE,141,0.0,0.0,78,0.00,,,0.00,Wunderground v.1.15,2013-07-25 13:40:00,
2013-07-25 08:50:00,69.3,61.8,29.97,SSW,212,0.0,0.0,77,0.00,,,0.00,Wunderground v.1.15,2013-07-25 13:50:00,
2013-07-25 09:00:00,70.3,62.4,29.97,SSW,209,0.0,0.0,76,0.00,,,0.00,Wunderground v.1.15,2013-07-25 14:00:00,
2013-07-25 09:10:00,71.5,63.2,29.97,SW,218,0.0,1.0,75,0.00,,,0.00,Wunderground v.1.15,2013-07-25 14:10:00,
2013-07-25 09:20:00,72.3,62.8,29.97,SSW,201,0.0,0.0,72,0.00,,,0.00,Wunderground v.1.15,2013-07-25 14:20:00,
2013-07-25 09:30:00,73.3,62.5,29.97,West,259,0.0,0.0,69,0.00,,,0.00,Wunderground v.1.15,2013-07-25 14:30:00,
2013-07-25 09:40:00,74.0,62.8,29.97,South,188,0.0,0.0,68,0.00,,,0.00,Wunderground v.1.15,2013-07-25 14:40:00,
2013-07-25 09:50:00,74.7,63.0,29.97,SSW,212,0.0,2.0,67,0.00,,,0.00,Wunderground v.1.15,2013-07-25 14:50:00,
2013-07-25 10:00:00,76.1,63.0,29.97,SSE,161,0.0,0.0,64,0.00,,,0.00,Wunderground v.1.15,2013-07-25 15:00:00,
2013-07-25 10:10:00,76.5,63.0,29.97,SSW,203,0.0,0.0,63,0.00,,,0.00,Wunderground v.1.15,2013-07-25 15:10:00,
2013-07-25 10:20:00,77.4,63.4,29.97,SSW,205,0.0,0.0,62,0.00,,,0.00,Wunderground v.1.15,2013-07-25 15:20:00,
2013-07-25 10:30:00,77.9,62.9,29.97,SW,224,0.0,0.0,60,0.00,,,0.00,Wunderground v.1.15,2013-07-25 15:30:00,
2013-07-25 10:40:00,78.5,63.5,29.97,SSW,196,0.0,0.0,60,0.00,,,0.00,Wunderground v.1.15,2013-07-25 15:40:00,
2013-07-25 10:50:00,78.8,64.2,29.97,SE,127,0.0,0.0,61,0.00,,,0.00,Wunderground v.1.15,2013-07-25 15:50:00,
2013-07-25 11:00:00,79.4,63.3,29.96,SE,131,0.0,0.0,58,0.00,,,0.00,Wunderground v.1.15,2013-07-25 16:00:00,
2013-07-25 11:10:00,79.8,63.2,29.96,SW,234,0.0,0.0,57,0.00,,,0.00,Wunderground v.1.15,2013-07-25 16:10:00,
2013-07-25 11:20:00,79.8,63.7,29.96,SW,229,0.0,0.0,58,0.00,,,0.00,Wunderground v.1.15,2013-07-25 16:20:00,
2013-07-25 11:30:00,79.9,62.8,29.95,WSW,245,0.0,0.0,56,0.00,,,0.00,Wunderground v.1.15,2013-07-25 16:30:00,
2013-07-25 11:40:00,80.7,63.5,29.95,WSW,244,0.0,0.0,56,0.00,,,0.00,Wunderground v.1.15,2013-07-25 16:40:00,
2013-07-25 11:50:00,80.1,63.5,29.95,WNW,288,0.0,0.0,57,0.00,,,0.00,Wunderground v.1.15,2013-07-25 16:50:00,
2013-07-25 12:00:00,80.3,63.7,29.95,SE,139,0.0,0.0,57,0.00,,,0.00,Wunderground v.1.15,2013-07-25 17:00:00,
2013-07-25 12:10:00,80.5,63.9,29.95,WNW,291,0.0,0.0,57,0.00,,,0.00,Wunderground v.1.15,2013-07-25 17:10:00,
2013-07-25 12:20:00,80.5,64.4,29.95,SW,220,0.0,0.0,58,0.00,,,0.00,Wunderground v.1.15,2013-07-25 17:20:00,
2013-07-25 12:30:00,79.8,63.7,29.95,SW,214,0.0,0.0,58,0.00,,,0.00,Wunderground v.1.15,2013-07-25 17:30:00,
2013-07-25 12:40:00,79.8,63.7,29.95,WSW,250,0.0,0.0,58,0.00,,,0.00,Wunderground v.1.15,2013-07-25 17:40:00,
2013-07-25 12:50:00,80.5,62.8,29.95,SSE,165,0.0,0.0,55,0.00,,,0.00,Wunderground v.1.15,2013-07-25 17:50:00,
2013-07-25 13:00:00,81.1,62.9,29.95,West,279,0.0,0.0,54,0.00,,,0.00,Wunderground v.1.15,2013-07-25 18:00:00,
2013-07-25 13:10:00,81.8,64.6,29.95,WSW,243,0.0,0.0,56,0.00,,,0.00,Wunderground v.1.15,2013-07-25 18:10:00,
2013-07-25 13:20:00,82.2,63.9,29.94,WSW,258,0.0,0.0,54,0.00,,,0.00,Wunderground v.1.15,2013-07-25 18:20:00,
2013-07-25 13:30:00,82.4,64.1,29.93,SSW,198,0.0,0.0,54,0.00,,,0.00,Wunderground v.1.15,2013-07-25 18:30:00,
2013-07-25 13:40:00,82.6,64.8,29.93,South,189,0.0,2.0,55,0.00,,,0.00,Wunderground v.1.15,2013-07-25 18:40:00,
2013-07-25 13:50:00,83.2,62.1,29.93,SSW,209,1.0,1.0,49,0.00,,,0.00,Wunderground v.1.15,2013-07-25 18:50:00,
2013-07-25 14:00:00,84.1,63.5,29.93,WNW,290,0.0,0.0,50,0.00,,,0.00,Wunderground v.1.15,2013-07-25 19:00:00,
2013-07-25 14:10:00,83.4,63.4,29.93,West,280,1.0,1.0,51,0.00,,,0.00,Wunderground v.1.15,2013-07-25 19:10:00,
2013-07-25 14:20:00,84.0,63.4,29.92,WNW,294,0.0,0.0,50,0.00,,,0.00,Wunderground v.1.15,2013-07-25 19:20:00,
2013-07-25 14:30:00,82.8,62.8,29.92,WSW,246,0.0,0.0,51,0.00,,,0.00,Wunderground v.1.15,2013-07-25 19:30:00,
2013-07-25 14:40:00,83.2,62.6,29.92,SSE,151,0.0,0.0,50,0.00,,,0.00,Wunderground v.1.15,2013-07-25 19:40:00,
2013-07-25 14:50:00,83.2,64.3,29.92,West,265,0.0,0.0,53,0.00,,,0.00,Wunderground v.1.15,2013-07-25 19:50:00,
2013-07-25 15:00:00,84.1,63.5,29.91,SSW,193,0.0,0.0,50,0.00,,,0.00,Wunderground v.1.15,2013-07-25 20:00:00,
2013-07-25 15:10:00,83.6,63.6,29.91,SW,233,0.0,3.0,51,0.00,,,0.00,Wunderground v.1.15,2013-07-25 20:10:00,
2013-07-25 15:20:00,84.9,65.9,29.90,SW,223,0.0,2.0,53,0.00,,,0.00,Wunderground v.1.15,2013-07-25 20:20:00,
2013-07-25 15:30:00,83.6,62.4,29.90,SSW,207,0.0,0.0,49,0.00,,,0.00,Wunderground v.1.15,2013-07-25 20:30:00,
2013-07-25 15:40:00,82.6,63.7,29.90,SSE,148,0.0,0.0,53,0.00,,,0.00,Wunderground v.1.15,2013-07-25 20:40:00,
2013-07-25 15:50:00,82.2,63.9,29.90,ESE,109,0.0,0.0,54,0.00,,,0.00,Wunderground v.1.15,2013-07-25 20:50:00,
2013-07-25 16:00:00,81.8,64.6,29.90,NE,52,0.0,0.0,56,0.00,,,0.00,Wunderground v.1.15,2013-07-25 21:00:00,
2013-07-25 16:10:00,81.8,63.0,29.90,SW,221,0.0,0.0,53,0.00,,,0.00,Wunderground v.1.15,2013-07-25 21:10:00,
2013-07-25 16:20:00,81.8,63.5,29.90,WSW,239,0.0,2.0,54,0.00,,,0.00,Wunderground v.1.15,2013-07-25 21:20:00,
2013-07-25 16:30:00,81.8,65.1,29.90,SSE,167,0.0,0.0,57,0.00,,,0.00,Wunderground v.1.15,2013-07-25 21:30:00,
2013-07-25 16:40:00,82.6,65.3,29.90,West,280,0.0,0.0,56,0.00,,,0.00,Wunderground v.1.15,2013-07-25 21:40:00,
2013-07-25 16:50:00,82.0,64.2,29.89,WSW,254,0.0,0.0,55,0.00,,,0.00,Wunderground v.1.15,2013-07-25 21:50:00,
2013-07-25 17:00:00,82.4,65.1,29.89,South,185,0.0,0.0,56,0.00,,,0.00,Wunderground v.1.15,2013-07-25 22:00:00,
2013-07-25 17:10:00,82.4,65.1,29.89,SW,227,0.0,0.0,56,0.00,,,0.00,Wunderground v.1.15,2013-07-25 22:10:00,
2013-07-25 17:20:00,81.2,64.5,29.89,South,183,0.0,0.0,57,0.00,,,0.00,Wunderground v.1.15,2013-07-25 22:20:00,
2013-07-25 17:30:00,81.2,65.0,29.88,SSE,154,0.0,0.0,58,0.00,,,0.00,Wunderground v.1.15,2013-07-25 22:30:00,
2013-07-25 17:40:00,81.4,65.7,29.88,SSW,196,0.0,0.0,59,0.00,,,0.00,Wunderground v.1.15,2013-07-25 22:40:00,
2013-07-25 17:50:00,81.2,65.5,29.88,ESE,115,0.0,0.0,59,0.00,,,0.00,Wunderground v.1.15,2013-07-25 22:50:00,
2013-07-25 18:00:00,81.4,65.2,29.88,SW,225,0.0,0.0,58,0.00,,,0.00,Wunderground v.1.15,2013-07-25 23:00:00,
2013-07-25 18:10:00,81.1,65.4,29.88,SW,230,0.0,0.0,59,0.00,,,0.00,Wunderground v.1.15,2013-07-25 23:10:00,
2013-07-25 18:20:00,80.5,65.3,29.87,SW,229,0.0,2.0,60,0.00,,,0.00,Wunderground v.1.15,2013-07-25 23:20:00,
2013-07-25 18:30:00,80.3,65.6,29.87,West,263,0.0,0.0,61,0.00,,,0.00,Wunderground v.1.15,2013-07-25 23:30:00,
2013-07-25 18:40:00,79.8,65.6,29.87,SSW,194,0.0,0.0,62,0.00,,,0.00,Wunderground v.1.15,2013-07-25 23:40:00,
2013-07-25 18:50:00,79.6,66.3,29.87,South,180,0.0,0.0,64,0.00,,,0.00,Wunderground v.1.15,2013-07-25 23:50:00,
2013-07-25 19:00:00,79.6,65.9,29.87,West,269,1.0,1.0,63,0.00,,,0.00,Wunderground v.1.15,2013-07-26 00:00:00,
2013-07-25 19:10:00,79.6,66.3,29.87,SW,225,0.0,0.0,64,0.00,,,0.00,Wunderground v.1.15,2013-07-26 00:10:00,
2013-07-25 19:20:00,79.2,65.5,29.87,West,273,0.0,0.0,63,0.00,,,0.00,Wunderground v.1.15,2013-07-26 00:20:00,
2013-07-25 19:30:00,78.8,64.7,29.87,SW,225,2.0,2.0,62,0.00,,,0.00,Wunderground v.1.15,2013-07-26 00:30:00,
2013-07-25 19:40:00,78.5,64.9,29.87,West,264,1.0,1.0,63,0.00,,,0.00,Wunderground v.1.15,2013-07-26 00:40:00,
2013-07-25 19:50:00,78.3,65.1,29.87,WSW,237,1.0,1.0,64,0.00,,,0.00,Wunderground v.1.15,2013-07-26 00:50:00,
2013-07-25 20:00:00,77.9,65.2,29.87,SW,229,1.0,1.0,65,0.00,,,0.00,Wunderground v.1.15,2013-07-26 01:00:00,
2013-07-25 20:10:00,77.7,65.4,29.87,WSW,246,0.0,0.0,66,0.00,,,0.00,Wunderground v.1.15,2013-07-26 01:10:00,
2013-07-25 20:20:00,77.2,65.8,29.89,WSW,243,1.0,1.0,68,0.00,,,0.00,Wunderground v.1.15,2013-07-26 01:20:00,
2013-07-25 20:30:00,77.0,65.6,29.90,West,278,0.0,0.0,68,0.00,,,0.00,Wunderground v.1.15,2013-07-26 01:30:00,
2013-07-25 20:40:00,76.8,65.9,29.90,West,278,0.0,0.0,69,0.00,,,0.00,Wunderground v.1.15,2013-07-26 01:40:00,
2013-07-25 20:50:00,76.7,65.8,29.89,West,278,0.0,0.0,69,0.00,,,0.00,Wunderground v.1.15,2013-07-26 01:50:00,
2013-07-25 21:00:00,76.5,66.0,29.88,West,278,0.0,0.0,70,0.00,,,0.00,Wunderground v.1.15,2013-07-26 02:00:00,
2013-07-25 21:10:00,76.1,65.6,29.88,West,278,0.0,0.0,70,0.00,,,0.00,Wunderground v.1.15,2013-07-26 02:10:00,
2013-07-25 21:20:00,76.0,65.9,29.87,West,278,0.0,0.0,71,0.00,,,0.00,Wunderground v.1.15,2013-07-26 02:20:00,
2013-07-25 21:30:00,75.6,65.9,29.87,West,278,0.0,0.0,72,0.00,,,0.00,Wunderground v.1.15,2013-07-26 02:30:00,
2013-07-25 21:40:00,75.4,66.1,29.87,West,278,0.0,0.0,73,0.00,,,0.00,Wunderground v.1.15,2013-07-26 02:40:00,
2013-07-25 21:50:00,75.1,66.2,29.88,West,278,0.0,0.0,74,0.00,,,0.00,Wunderground v.1.15,2013-07-26 02:50:00,
2013-07-25 22:00:00,74.9,66.1,29.88,West,277,0.0,0.0,74,0.00,,,0.00,Wunderground v.1.15,2013-07-26 03:00:00,
2013-07-25 22:10:00,74.6,66.1,29.88,SW,222,0.0,0.0,75,0.00,,,0.00,Wunderground v.1.15,2013-07-26 03:10:00,
2013-07-25 22:20:00,74.2,65.8,29.89,SW,221,0.0,0.0,75,0.00,,,0.00,Wunderground v.1.15,2013-07-26 03:20:00,
2013-07-25 22:30:00,74.0,65.6,29.89,SW,219,0.0,0.0,75,0.00,,,0.00,Wunderground v.1.15,2013-07-26 03:30:00,
2013-07-25 22:40:00,73.9,65.9,29.89,SW,219,0.0,0.0,76,0.00,,,0.00,Wunderground v.1.15,2013-07-26 03:40:00,
2013-07-25 22:50:00,73.7,65.7,29.90,SW,219,0.0,0.0,76,0.00,,,0.00,Wunderground v.1.15,2013-07-26 03:50:00,
2013-07-25 23:00:00,73.7,65.7,29.90,SW,219,0.0,0.0,76,0.00,,,0.00,Wunderground v.1.15,2013-07-26 04:00:00,
2013-07-25 23:10:00,73.5,65.5,29.90,SW,221,0.0,0.0,76,0.00,,,0.00,Wunderground v.1.15,2013-07-26 04:10:00,
2013-07-25 23:20:00,73.3,64.9,29.90,SW,221,0.0,0.0,75,0.00,,,0.00,Wunderground v.1.15,2013-07-26 04:20:00,
2013-07-25 23:30:00,73.3,64.9,29.90,WSW,250,0.0,0.0,75,0.00,,,0.00,Wunderground v.1.15,2013-07-26 04:30:00,
2013-07-25 23:40:00,73.2,64.8,29.90,SW,227,0.0,0.0,75,0.00,,,0.00,Wunderground v.1.15,2013-07-26 04:40:00,
2013-07-25 23:50:00,73.2,64.8,29.90,SW,227,0.0,0.0,75,0.00,,,0.00,Wunderground v.1.15,2013-07-26 04:50:00,